Other Public Products
Issued by NWS Charleston, SC

Current Version | Previous Version | Graphics & Text | Print | Product List | Glossary On
Versions: 1 2 3 4 5 6 7 8 9 10 11 12 13 14 15 16 17 18 19 20 21 22 23 24 25 26 27 28 29 30 31 32 33 34 35 36 37 38 39 40 41 42 43 44 45 46 47 48 49 50
344
FPUS82 KCHS 250626
OPUCHS

TEST...KCHS/KSAV Gateway Observations...TEST
National Weather Service Charleston SC
100 AM EST SAT FEB 25 2017

NOTE: "fair" indicates few or no clouds below 12,000 feet with no
significant weather and/or obstructions to visibility.

SCZ050-WAZ558-NCZ071-TXZ119-213-PAZ071-DCZ001-FLZ074-172-MI076-
NYZ176-178-MAZ016-IL014-TNZ027-NJZ106-GAZ044-MD014-250700-
...Gateway Observations for Charleston International...

CITY           SKY/WX    TMP DP  RH WIND       PRES   REMARKS
Chas Airport   CLEAR     57  56  96 CALM      29.84F
6HR MIN TEMP:  57; 6HR MAX TEMP:  67;

Seattle        CLOUDY    40  33  76 N5        30.24R WCI  37
6HR MIN TEMP:  40; 6HR MAX TEMP:  46;

Charlotte      MOCLDY    60  52  74 S9        29.80F
6HR MIN TEMP:  58; 6HR MAX TEMP:  69;

Dallas DFW     CLEAR     48  27  44 N21       30.08R
6HR MIN TEMP:  48; 6HR MAX TEMP:  60;

Dallas Love    CLEAR     49  26  41 N20G25    30.09R
6HR MIN TEMP:  49; 6HR MAX TEMP:  60;

Philladelphia  MOCLDY    59  54  83 S6        29.83S
6HR MIN TEMP:  58; 6HR MAX TEMP:  64;

Wash National  MOCLDY    61  58  90 S13       29.78F
6HR MIN TEMP:  60; 6HR MAX TEMP:  68;

Baltimore      MOCLDY    55  55 100 E6        29.78F
6HR MIN TEMP:  55; 6HR MAX TEMP:  65;

Miami          PTCLDY    69  66  90 SW6       29.86F
6HR MIN TEMP:  69; 6HR MAX TEMP:  75;

Detroit        CLOUDY    51  46  83 W22       29.49R
6HR MIN TEMP:  51; 6HR MAX TEMP:  63; 6HR PCP:  0.20;

Newark         CLOUDY    59  56  89 VRB3      29.84F
6HR MIN TEMP:  59; 6HR MAX TEMP:  65;

Laguardia      CLOUDY    54  50  87 S5        29.84F
6HR MIN TEMP:  54; 6HR MAX TEMP:  62;

J F K          FOG       51  51 100 S8        29.87S VSB 1/4
6HR MIN TEMP:  49; 6HR MAX TEMP:  54;

Boston Logan   NOT AVBL
Ft. Lauderdale PTCLDY    70  66  87 CALM      29.85S
6HR MIN TEMP:  70; 6HR MAX TEMP:  75;

Chicago O`Hare CLOUDY    33  28  81 NW12      29.60R WCI  24
6HR MIN TEMP:  33; 6HR MAX TEMP:  39; 6HR PCP: TRACE;

Chicago Midway LGT SNOW  34  29  82 W14       29.61R FOG     WCI  25
6HR MIN TEMP:  34; 6HR MAX TEMP:  44; 6HR PCP: TRACE;

Houston Bush   CLEAR     58  39  49 N13       29.97R
6HR MIN TEMP:  58; 6HR MAX TEMP:  76;

Houston Hobby  CLEAR     60  40  47 N14G25    29.96R
6HR MIN TEMP:  60; 6HR MAX TEMP:  79;

Nashville      CLOUDY    63  42  46 NW12G20   29.72R
6HR MIN TEMP:  63; 6HR MAX TEMP:  76;

Atlanta        PTCLDY    66  55  67 SW9       29.78S
6HR MIN TEMP:  66; 6HR MAX TEMP:  73;


$$

GAZ044-118-TXZ119-213-NCZ071-DCZ001-MDZ014-506-PAZ021-071-NJZ106-
NYZ176-178-MAZ106-OHZ011-021-055-MIZ076-KYZ091-ILZ014-INZ047-
MNZ060-ONZ431-250700-
...Gateway Observations for Savannah International...

CITY           SKY/WX    TMP DP  RH WIND       PRES   REMARKS
Savannah Arpt  CLEAR     60  57  89 SE3       29.84F
6HR MIN TEMP:  60; 6HR MAX TEMP:  68;

Atlanta        PTCLDY    66  55  67 SW9       29.78S
6HR MIN TEMP:  66; 6HR MAX TEMP:  73;

Charlotte      MOCLDY    60  52  74 S9        29.80F
6HR MIN TEMP:  58; 6HR MAX TEMP:  69;

Dallas DFW     CLEAR     48  27  44 N21       30.08R
6HR MIN TEMP:  48; 6HR MAX TEMP:  60;

Houston Bush   CLEAR     58  39  49 N13       29.97R
6HR MIN TEMP:  58; 6HR MAX TEMP:  76;

Wash National  MOCLDY    61  58  90 S13       29.78F
6HR MIN TEMP:  60; 6HR MAX TEMP:  68;

Wash Dulles    MOCLDY    63  57  81 S8        29.76S
6HR MIN TEMP:  62; 6HR MAX TEMP:  69;

Baltimore      MOCLDY    55  55 100 E6        29.78F
6HR MIN TEMP:  55; 6HR MAX TEMP:  65;

Philadelphia   MOCLDY    59  54  83 S6        29.83S
6HR MIN TEMP:  58; 6HR MAX TEMP:  64;

Newark         CLOUDY    59  56  89 VRB3      29.84F
6HR MIN TEMP:  59; 6HR MAX TEMP:  65;

Laguardia      CLOUDY    54  50  87 S5        29.84F
6HR MIN TEMP:  54; 6HR MAX TEMP:  62;

J F K          FOG       51  51 100 S8        29.87S VSB 1/4
6HR MIN TEMP:  49; 6HR MAX TEMP:  54;

Boston         NOT AVBL
Pittsburg      NOT AVBL
Akron          LGT RAIN  58  53  84 SW13      29.54F
6HR MIN TEMP:  58; 6HR MAX TEMP:  67; 6HR PCP:  0.21;

Cleveland      RAIN      60  54  80 SW10      29.53R
6HR MIN TEMP:  60; 6HR MAX TEMP:  71; 6HR PCP:  0.38;

Cincinnati     MOCLDY    50  42  74 NW13      29.64R
6HR MIN TEMP:  50; 6HR MAX TEMP:  73; 6HR PCP:  0.06;

Columbus       CLOUDY    53  52  94 W8        29.60R
Detroit        CLOUDY    51  46  83 W22       29.49R
6HR MIN TEMP:  51; 6HR MAX TEMP:  63; 6HR PCP:  0.20;

Chicago O`Hare CLOUDY    33  28  81 NW12      29.60R WCI  24
6HR MIN TEMP:  33; 6HR MAX TEMP:  39; 6HR PCP: TRACE;

Minneapolis    PTCLDY    20   5  52 N22G30    29.89S WCI   3
6HR MIN TEMP:  20; 6HR MAX TEMP:  25;

Indianapolis   PTCLDY    41  33  73 W13       29.64S
6HR MIN TEMP:  41; 6HR MAX TEMP:  59; 6HR PCP:  0.08;

Toronto Canada LGT RAIN  37  37 100 SE2       29.50F FOG

$$




USA.gov is the U.S. government's official web portal to all federal, state and local government web resources and services.